User: anonymous   Login
Location: Zagreb
(45.8000°N, 16.0000°E)
Time: 03:36:10
(UTC+01:00)
Language:

Hubble Space Telescope - Orbit

View from above orbital plane
View from above orbital plane
View from above satellite
View from above satellite

Ground track
Ground track

The orbit data is extracted from the following two-line orbital elements,

1 20580U 90037B   20024.80485197  .00000345  00000-0  10009-4 0  9990
2 20580  28.4681 196.3421 0002651 337.7972  42.4136 15.09329018434171
Epoch (UTC): 24 January 2020 19:18:59
Eccentricity: 0.0002651
inclination: 28.4681°
perigee height: 536 km
apogee height: 540 km
right ascension of ascending node: 196.3421°
argument of perigee: 337.7972°
revolutions per day: 15.09329018
mean anomaly at epoch: 42.4136°
orbit number at epoch: 43417

The dashed part of the orbit path shows where the satellite is in the earth's shadow,  

DLR